CEF4 Weather Reports


time (UTC)temp
F
wind
direction
speed
knots
gust
knots
rain 1hr
in
rain 24hr
in
rain mn
in
humidity
%
barometer
mb
20260906231549 58 149 6.1 10.4 7.73 0.00 0.02
20260906230249 58 134 6.1 9.6 7.73 0.00 0.02
20260906224949 58 113 6.1 8.7 7.73 0.00 0.02
20260906223650 57 149 6.1 8.7 7.73 0.00 0.02
20260906222349 57 136 6.1 8.7 7.73 0.00 0.02
20260906221049 57 115 5.2 7.0 7.73 0.00 0.02
20260906215749 57 115 5.2 7.0 7.73 0.00 0.02
20260906214449 57 149 6.1 7.8 7.73 0.00 0.02
20260906213149 56 143 6.1 8.7 7.73 0.00 0.02
20260906211849 56 110 5.2 7.8 7.73 0.00 0.02
20260906210549 56 114 5.2 7.0 7.73 0.00 0.02
20260906205249 55 104 2.6 7.0 7.73 0.00 0.02
20260906203950 54 0 0.0 0.0 7.73 0.00 0.02
20260906202649 53 0 0.0 0.0 7.73 0.00 0.02
20260906201349 53 0 0.0 0.0 7.72 0.00 0.01
20260906200049 53 0 0.0 0.0 7.72 0.00 0.01
20260906194749 53 0 0.0 0.0 7.72 0.00 0.01
20260906193449 53 0 0.0 0.0 7.72 0.00 0.01
20260906192149 53 0 0.0 0.0 7.72 0.00 0.01
20260906190849 52 0 0.0 0.0 7.72 0.00 0.01
20260906185549 52 0 0.0 0.0 7.72 0.00 0.01
20260906184249 52 0 0.0 0.0 7.72 0.00 0.01
20260906182949 52 0 0.0 0.0 7.72 0.00 0.01
20260906181649 51 0 0.0 0.0 7.72 0.00 0.01
20260906180350 51 0 0.0 0.0 7.72 0.00 0.01
20260906175049 50 0 0.0 0.0 7.72 0.00 0.01
20260906173749 50 105 4.3 7.0 7.72 0.00 0.01
20260906172449 50 111 4.3 6.1 7.72 0.00 0.01
20260906171149 50 108 4.3 7.0 7.72 0.00 0.01
20260906165849 50 94 3.5 5.2 7.72 0.00 0.01
20260906164549 50 124 4.3 7.0 7.72 0.00 0.01
20260906163249 50 113 6.1 7.8 7.71 0.00 0.00
20260906160649 50 118 4.3 6.1 7.71 0.00 0.00
20260906155349 50 94 3.5 4.3 7.71 0.00 0.00
20260906154050 50 0 0.0 0.0 7.71 0.00 0.00
20260906152750 50 0 0.0 0.0 7.71 0.00 0.00
20260906151449 50 0 0.0 0.0 7.71 0.00 0.00
20260906150150 50 0 0.0 0.0 7.71 0.00 0.00
20260906144849 50 0 0.0 0.0 7.71 0.00 0.00
20260906143549 50 0 0.0 0.0 7.71 0.00 0.00
20260906142249 49 0 0.0 0.0 7.71 0.00 0.00
20260906140949 49 0 0.0 0.0 7.71 0.00 0.00
20260906135649 49 0 0.0 0.0 7.71 0.00 0.00
20260906134349 49 0 0.0 0.0 7.71 0.00 0.00
20260906133049 49 0 0.0 0.0 7.71 0.00 0.00
20260906131749 49 0 0.0 0.0 7.71 0.00 0.00
20260906130449 49 0 0.0 0.0 7.71 0.00 0.00
20260906125149 49 0 0.0 0.0 7.71 0.00 0.00
20260906123849 49 0 0.0 0.0 7.71 0.00 0.00
20260906122549 50 278 0.9 3.5 7.71 0.00 0.00
20260906121249 49 219 1.7 4.3 7.71 0.00 0.00
20260906115949 49 218 1.7 4.3 7.71 0.00 0.00
20260906114649 49 194 4.3 6.1 7.71 0.00 0.00
20260906113349 49 195 4.3 6.1 7.71 0.00 0.00
20260906112050 49 193 4.3 6.1 7.71 0.00 0.00
20260906110749 50 0 0.0 0.0 7.71 0.00 0.00
20260906105449 49 194 1.7 4.3 7.71 0.00 0.00
20260906104149 49 0 0.0 0.0 7.71 0.00 0.00
20260906102849 49 0 0.0 0.0 7.71 0.00 0.00
20260906101549 49 77 0.9 1.7 7.71 0.00 0.00
20260906100249 49 77 3.5 5.2 7.71 0.00 0.00
20260906094949 49 0 0.0 0.0 7.71 0.00 0.00
20260906093649 49 62 2.6 4.3 7.71 0.00 0.00
20260906092349 48 0 0.0 0.0 7.71 0.00 0.00
20260906091049 48 59 0.9 3.5 7.71 0.00 0.00
20260906085748 48 0 0.0 0.0 7.71 0.00 0.00
20260906084448 48 0 0.0 0.0 7.71 0.00 0.00
20260906083148 49 0 0.0 0.0 7.71 0.00 0.00
20260906081851 49 93 0.9 3.5 7.71 0.00 0.00
20260906080548 48 110 4.3 5.2 7.71 0.00 0.00
20260906075248 48 287 3.5 4.3 7.71 0.00 0.00
20260906073948 49 256 0.9 3.5 7.71 0.00 0.00
20260906072648 49 0 0.0 0.0 7.71 0.00 0.00
20260906071348 49 291 0.0 2.6 7.71 0.00 0.00
20260906070050 48 270 3.5 4.3 7.71 0.00 0.00
20260906064748 49 318 0.9 5.2 7.71 0.00 0.00
20260906063448 49 0 0.0 0.0 7.71 0.00 0.00
20260906062149 49 0 0.0 0.0 7.71 0.00 0.00
20260906060849 49 0 0.0 0.0 7.71 0.00 0.00
20260906055548 49 0 0.0 0.0 7.71 0.00 0.00
20260906054248 49 0 0.0 0.0 7.71 0.00 0.00
20260906052948 49 0 0.0 0.0 7.71 0.00 0.08
20260906051648 49 0 0.0 0.0 7.71 0.00 0.08
20260906050349 49 0 0.0 0.0 7.71 0.00 0.08
20260906045048 49 0 0.0 0.0 7.71 0.00 0.08
20260906043748 49 0 0.0 0.0 7.71 0.00 0.08
20260906042449 49 0 0.0 0.0 7.71 0.00 0.08
20260906041148 50 0 0.0 0.0 7.71 0.00 0.08
20260906035848 49 0 0.0 0.0 7.71 0.00 0.08
20260906034548 49 336 2.6 4.3 7.70 0.00 0.07
20260906033249 49 345 3.5 5.2 7.70 0.00 0.07
20260906031948 49 330 3.5 6.1 7.69 0.00 0.06
20260906025350 50 343 0.9 4.3 7.68 0.00 0.05
20260906024048 50 330 2.6 4.3 7.68 0.00 0.05
20260906022748 49 330 3.5 5.2 7.68 0.00 0.05
20260906021448 50 329 3.5 5.2 7.67 0.00 0.04
20260906020148 50 304 2.6 4.3 7.67 0.00 0.04
20260906014848 50 352 2.6 3.5 7.67 0.00 0.04
20260906013549 50 0 0.0 0.0 7.67 0.00 0.04
20260906012248 50 23 2.6 4.3 7.66 0.00 0.03
20260906010948 50 14 2.6 4.3 7.66 0.00 0.03
20260906005648 50 0 0.0 0.0 7.65 0.00 0.02
20260906004348 50 343 0.0 1.7 7.64 0.00 0.01
20260906003049 50 8 2.6 4.3 7.64 0.00 0.01
20260906001748 50 17 3.5 6.1 7.64 0.00 0.01
20260906000448 50 18 4.3 7.0 7.64 0.00 0.01
20260905235148 50 7 3.5 6.1 7.64 0.00 0.01
20260905233848 50 1 5.2 7.0 7.64 0.00 0.01
20260905232549 50 349 5.2 7.8 7.64 0.00 0.01